[[{"header":{"parameterUnit":"m.s-1","parameterCategory":2,"la1":30.2991,"la2":30.254,"lo1":-89.0895,"lo2":-89.0444,"dy":0.0017,"dx":0.0017,"nx":28,"ny":28,"refTime":"2025-03-24T09:00:00:Z","depth":"0","parameterNumber":2,"parameterNumberName":"U-component_of_CURRENTS"},"data":[0,0,0,0,0,0,0,0,0,0,0,0,0,0,0,0,0,0,0,0,0,0,0,0,0,0,0,0,0,0,0,0,0,0,0,0,0,0,0,0,0,0,0,0,0,0,0,0,0,0,0,0,0,0,0,0,0,0,0.3511,0.3513,0,0.3638,0.3639,0.364,0.3663,0.3662,0.3661,0.366,0.3696,0.3698,0.37,0,0,0,0,0,0,0,0,0,0,0,0,0,0.3406,0.3407,0.3511,0.3513,0.3514,0.3637,0.3639,0.3641,0.3663,0.3662,0.3661,0.366,0.3696,0.3698,0.37,0,0,0,0,0,0,0,0,0,0,0,0,0,0.3483,0.3407,0.3511,0.3541,0.3545,0.3637,0.3639,0.3641,0.3663,0.3662,0.366,0.3659,0.3695,0.3698,0.37,0.3747,0,0,0.3709,0.371,0,0,0,0,0,0,0,0,0.3478,0.3486,0.3535,0.3539,0.3544,0.3634,0.3616,0.3672,0.3664,0.3617,0.366,0.3658,0.3669,0.3674,0.3701,0.3749,0.375,0.3709,0.3711,0.3712,0.3713,0,0,0,0,0,0,0,0.3473,0.3482,0.356,0.3537,0.3542,0.3589,0.3597,0.3627,0.3647,0.3621,0.3624,0.3639,0.367,0.3698,0.3701,0.3751,0.3709,0.3712,0.3713,0.3715,0.3821,0.3822,0,0,0,0,0,0,0.3455,0.3476,0.3556,0.3564,0.3508,0.3591,0.36,0.3606,0.3649,0.3655,0.3641,0.364,0.3694,0.3698,0.3703,0.3782,0.3712,0.3715,0.3716,0.382,0.3821,0.3823,0,0,0,0,0,0,0.3452,0.346,0.3551,0.3524,0.3539,0.3594,0.36,0.3609,0.3632,0.3665,0.3669,0.3654,0.3693,0.3699,0.3725,0.3782,0.3716,0.3719,0.3819,0.382,0.3822,0.3927,0,0,0,0,0,0,0.3448,0.3458,0.346,0.3523,0.354,0.3609,0.3602,0.3612,0.3645,0.3645,0.3678,0.368,0.3692,0.372,0.3727,0.3785,0.3721,0.3817,0.3819,0.3821,0.3922,0.3932,0.3941,0,0,0,0,0,0.3444,0.3465,0.3459,0.347,0.3539,0.361,0.3624,0.3657,0.3647,0.367,0.368,0.3679,0.3739,0.3724,0.3732,0.3792,0.3816,0.3819,0.3821,0.3918,0.393,0.394,0,0,0,0,0,0,0.3448,0.3471,0.3466,0.3498,0.3545,0.3614,0.3648,0.3659,0.369,0.3684,0.3695,0.37,0.375,0.3743,0.3726,0.3823,0.3778,0.3782,0.3848,0.386,0.3869,0.388,0.3723,0,0,0,0,0,0.3441,0.3444,0.349,0.3518,0.354,0.3588,0.362,0.3641,0.3678,0.369,0.3711,0.3731,0.3772,0.3788,0.3817,0.3868,0.3909,0.3907,0.3917,0.3925,0.3937,0.408,0.4105,0.3831,0.3831,0.3831,0,0,0.3453,0.3467,0.3471,0.3516,0.3556,0.361,0.3604,0.3659,0.3712,0.3689,0.3755,0.3767,0.379,0.3855,0.3877,0.3854,0.4018,0.3928,0.3936,0.3943,0.4086,0.4113,0.4138,0.3833,0.3832,0.3832,0,0,0.3487,0.3489,0.3503,0.3542,0.3593,0.3631,0.3642,0.3704,0.3737,0.3799,0.3799,0.3836,0.3891,0.3929,0.3954,0.4026,0.4064,0.403,0.4094,0.4234,0.426,0.4282,0.4351,0.4379,0.4035,0.4035,0.4035,0,0.3502,0.3523,0.3529,0.3567,0.3612,0.3638,0.3694,0.3745,0.3807,0.3857,0.3827,0.3942,0.3939,0.405,0.4059,0.4055,0.4117,0.4057,0.4253,0.4276,0.4298,0.4363,0.4393,0.404,0.404,0.4039,0.4039,0,0.3546,0.3573,0.3599,0.3641,0.3692,0.3748,0.3813,0.3869,0.3903,0.3959,0.4065,0.4075,0.4145,0.415,0.4123,0.427,0.4257,0.4255,0.4236,0.4333,0.4393,0.4423,0.4048,0.4046,0.4044,0.4043,0,0,0.3555,0.3613,0.3622,0.3659,0.3734,0.3788,0.3887,0.3999,0.4087,0.4141,0.4264,0.4308,0.4313,0.4336,0.4324,0.4413,0.4584,0.4391,0.4395,0.4477,0.4869,0.4749,0.4769,0.4641,0.4647,0.4652,0.4844,0,0.3592,0.3666,0.3689,0.3787,0.3841,0.3905,0.4003,0.4105,0.4193,0.4315,0.4368,0.4465,0.4391,0.4426,0.4511,0.4576,0.4669,0.4529,0.4745,0.475,0.4651,0.4802,0.4511,0.465,0.4872,0.4877,0.4881,0,0.3623,0.3671,0.376,0.387,0.3902,0.3964,0.4134,0.4225,0.4397,0.4469,0.4581,0.4625,0.4744,0.4667,0.4868,0.4792,0.4833,0.4871,0.4881,0.4756,0.4687,0.4591,0.4695,0.453,0.4926,0.4922,0.4919,0,0.3632,0.3725,0.3796,0.3832,0.396,0.4026,0.4104,0.4272,0.44,0.4572,0.4695,0.4823,0.4929,0.502,0.5063,0.5004,0.5284,0.5222,0.5156,0.5146,0.4929,0.4889,0.4912,0.5391,0.539,0.539,0.5389,0,0.3674,0.3733,0.3799,0.3848,0.3982,0.4036,0.421,0.4319,0.4495,0.4679,0.4765,0.4935,0.5038,0.5189,0.5179,0.5265,0.5397,0.5204,0.5218,0.4948,0.491,0.4777,0.4731,0.5397,0.5395,0.5394,0.5393,0,0.3714,0.3735,0.3848,0.3958,0.3997,0.4104,0.4291,0.4435,0.4566,0.4811,0.4881,0.5103,0.5277,0.5345,0.5508,0.5437,0.5336,0.5489,0.5121,0.5087,0.4804,0.4774,0.4724,0.4594,0.545,0.5448,0.5447,0,0.375,0.3802,0.3942,0.4042,0.4101,0.424,0.4367,0.4484,0.4635,0.4917,0.5053,0.5276,0.5402,0.5567,0.5479,0.5465,0.5324,0.5207,0.5024,0.4785,0.4766,0.4618,0.4502,0.4773,0.4767,0.4761,0.4757,0,0.3887,0.393,0.4048,0.4213,0.434,0.4458,0.4607,0.4708,0.4866,0.5008,0.5186,0.5276,0.5408,0.5255,0.5246,0.5197,0.4916,0.5095,0.4976,0.4355,0.4073,0.3951,0.4614,0.4709,0.4714,0.4717,0.472,0.4722,0.4028,0.4156,0.4302,0.4436,0.4552,0.4619,0.4641,0.4771,0.4886,0.4948,0.5138,0.5086,0.5028,0.4937,0.4878,0.4537,0.4615,0.4319,0.4342,0.4242,0.3991,0.4517,0.4545,0.4548,0.4551,0.4554,0.4557,0,0.4243,0.4357,0.4519,0.4625,0.4658,0.4682,0.4765,0.4693,0.4689,0.4752,0.4751,0.4546,0.4383,0.4282,0.3993,0.3785,0.3618,0.3672,0.3386,0.3341,0.3913,0.375,0.3448,0.3448,0.3449,0.3449,0.3449,0.3449,0.4383,0.4583,0.4611,0.4661,0.4664,0.4546,0.45,0.44,0.4349,0.4099,0.3874,0.3831,0.382,0.3667,0.3355,0.3257,0.3019,0.2848,0.2949,0.3313,0.3372,0.3429,0.3263,0.2864,0.2864,0.2148,0.2142,0.2138]},{"header":{"parameterUnit":"m.s-1","parameterCategory":2,"la1":30.2991,"la2":30.254,"lo1":-89.0895,"lo2":-89.0444,"dy":0.0017,"dx":0.0017,"nx":28,"ny":28,"refTime":"2025-03-24T09:00:00:Z","depth":"0","parameterNumber":3,"parameterNumberName":"V-component_of_CURRENTS"},"data":[0,0,0,0,0,0,0,0,0,0,0,0,0,0,0,0,0,0,0,0,0,0,0,0,0,0,0,0,0,0,0,0,0,0,0,0,0,0,0,0,0,0,0,0,0,0,0,0,0,0,0,0,0,0,0,0,0,0,0.0169,0.0169,0,0.0119,0.0119,0.0118,0.0073,0.0073,0.0072,0.0072,0.004,0.0039,0.0039,0,0,0,0,0,0,0,0,0,0,0,0,0,0.018,0.0181,0.0169,0.0169,0.0169,0.0119,0.0119,0.0118,0.0073,0.0073,0.0072,0.0072,0.004,0.0039,0.0039,0,0,0,0,0,0,0,0,0,0,0,0,0,0.0156,0.0181,0.017,0.0142,0.0139,0.012,0.0119,0.0118,0.0073,0.0073,0.0072,0.0072,0.004,0.004,0.0039,0.0046,0,0,0.0036,0.0036,0,0,0,0,0,0,0,0,0.0158,0.0156,0.0146,0.0143,0.014,0.0103,0.0111,0.0095,0.0073,0.0096,0.0072,0.0071,0.0064,0.0061,0.0051,0.0044,0.0043,0.0036,0.0036,0.0036,0.0035,0,0,0,0,0,0,0,0.016,0.0157,0.0148,0.0146,0.0142,0.0116,0.0112,0.0107,0.0083,0.0094,0.0091,0.0089,0.0062,0.0052,0.005,0.0042,0.0036,0.0036,0.0035,0.0035,0.0051,0.0052,0,0,0,0,0,0,0.0172,0.0159,0.015,0.0147,0.015,0.0116,0.0112,0.0114,0.0083,0.0078,0.0089,0.0087,0.0053,0.0051,0.0049,0.0089,0.0036,0.0035,0.0034,0.005,0.0051,0.0052,0,0,0,0,0,0,0.0173,0.0172,0.0152,0.0153,0.0148,0.0117,0.012,0.0114,0.0105,0.0079,0.0074,0.0088,0.0053,0.005,0.0056,0.0086,0.0035,0.0034,0.0049,0.005,0.0051,0.0148,0,0,0,0,0,0,0.0173,0.0173,0.0179,0.0154,0.0149,0.0155,0.0121,0.0113,0.0105,0.0102,0.0076,0.0072,0.0052,0.0058,0.0056,0.0084,0.0033,0.0048,0.0049,0.0051,0.0144,0.0152,0.016,0,0,0,0,0,0.0174,0.0191,0.0179,0.0178,0.0159,0.0157,0.0152,0.0126,0.0106,0.0114,0.0096,0.0073,0.0066,0.0058,0.0055,0.0084,0.0047,0.0049,0.0051,0.014,0.0151,0.016,0,0,0,0,0,0,0.0195,0.0187,0.0174,0.0186,0.0178,0.015,0.0153,0.0133,0.0123,0.0117,0.0088,0.0084,0.01,0.0076,0.0068,0.0091,0.0052,0.0053,0.012,0.013,0.0138,0.0168,0.0033,0,0,0,0,0,0.0204,0.0218,0.0201,0.0211,0.0209,0.0181,0.0176,0.0159,0.0145,0.0138,0.012,0.0104,0.0105,0.0105,0.0096,0.0113,0.0111,0.0127,0.0135,0.0142,0.0163,0.0193,0.0207,0.0058,0.0058,0.0058,0,0,0.0213,0.0213,0.0218,0.0217,0.0205,0.0226,0.0177,0.0176,0.02,0.0139,0.0162,0.0133,0.0115,0.0134,0.0138,0.012,0.0181,0.0144,0.0151,0.0169,0.0196,0.0211,0.0224,0.006,0.0059,0.0059,0,0,0.0249,0.024,0.0266,0.027,0.0265,0.0255,0.026,0.0238,0.0236,0.0251,0.0215,0.0209,0.0201,0.0198,0.0197,0.0245,0.0222,0.0231,0.0301,0.033,0.0343,0.0355,0.0366,0.0378,0.0236,0.0236,0.0237,0,0.0261,0.0295,0.0273,0.0305,0.0322,0.0278,0.0317,0.0313,0.0297,0.0312,0.0274,0.0274,0.0242,0.0287,0.029,0.0268,0.0271,0.0269,0.0344,0.0355,0.0365,0.0374,0.0386,0.0241,0.0241,0.024,0.024,0,0.0321,0.035,0.0368,0.0402,0.0415,0.0439,0.0438,0.0449,0.0434,0.0426,0.0453,0.0408,0.0413,0.0391,0.0353,0.0408,0.0382,0.0352,0.0326,0.0387,0.0391,0.0402,0.0248,0.0247,0.0245,0.0244,0,0,0.0345,0.0402,0.0408,0.045,0.0472,0.0494,0.0544,0.0581,0.0627,0.0594,0.0659,0.062,0.058,0.0574,0.0522,0.0526,0.0577,0.0469,0.0468,0.0493,0.0636,0.0568,0.0573,0.0563,0.0565,0.0567,0.0608,0,0.0402,0.049,0.0502,0.0591,0.0639,0.0638,0.0699,0.0724,0.073,0.0777,0.0737,0.0767,0.0658,0.0663,0.0652,0.0609,0.0611,0.0569,0.0562,0.0562,0.0506,0.0585,0.0551,0.0582,0.0619,0.062,0.0622,0,0.0462,0.0518,0.0614,0.0711,0.0732,0.0779,0.0871,0.0915,0.0962,0.0971,0.098,0.0948,0.0957,0.0851,0.0824,0.0803,0.0729,0.0677,0.0678,0.0594,0.0516,0.0526,0.0599,0.0423,0.0638,0.0636,0.0635,0,0.0506,0.0602,0.0687,0.0717,0.081,0.0862,0.0911,0.097,0.1036,0.1096,0.1161,0.1139,0.1173,0.1081,0.0954,0.0904,0.092,0.0844,0.0715,0.0709,0.0669,0.0655,0.0585,0.0832,0.0832,0.0832,0.0831,0,0.0573,0.0642,0.0715,0.0765,0.0884,0.0921,0.1041,0.1089,0.1178,0.1304,0.126,0.1371,0.1235,0.1216,0.1051,0.0932,0.1003,0.0756,0.073,0.0697,0.0686,0.0518,0.0409,0.0833,0.0833,0.0832,0.0832,0,0.0612,0.0658,0.0761,0.0866,0.0908,0.0986,0.1123,0.122,0.1294,0.1466,0.1506,0.1576,0.1575,0.1407,0.1294,0.1092,0.0846,0.0884,0.0842,0.0809,0.0487,0.0384,0.0286,0.022,0.076,0.0758,0.0757,0,0.0645,0.07,0.0822,0.0899,0.095,0.1067,0.1172,0.1265,0.1383,0.1613,0.1725,0.1791,0.1878,0.1668,0.1336,0.106,0.0864,0.0806,0.0689,0.0491,0.0359,0.0279,0.0225,0.0675,0.0674,0.0673,0.0671,0,0.0713,0.0743,0.0826,0.0972,0.1088,0.1227,0.138,0.1494,0.166,0.1837,0.2084,0.2178,0.2008,0.1743,0.1336,0.1117,0.0661,0.0768,0.0596,0.0321,0.0202,0.0119,0.0609,0.066,0.0661,0.0662,0.0662,0.0663,0.076,0.082,0.0929,0.1057,0.1204,0.1392,0.1528,0.1726,0.1959,0.2259,0.233,0.251,0.2066,0.1531,0.1225,0.0579,0.0597,0.0353,0.0258,0.0207,0.0098,0.0547,0.0536,0.0537,0.0537,0.0537,0.0538,0,0.0832,0.0899,0.1022,0.1195,0.1363,0.1426,0.1683,0.1852,0.2159,0.2429,0.264,0.2486,0.1968,0.1402,0.0524,0.0121,-0.0003,-0.009,-0.0203,-0.0222,0.0215,0.0163,0.0032,0.0032,0.0032,0.0032,0.0032,0.0032,0.0882,0.0992,0.1031,0.1288,0.1431,0.1677,0.1831,0.2102,0.2328,0.2633,0.2714,0.2743,0.2228,0.0783,-0.0133,-0.0316,-0.0566,-0.0653,-0.0736,-0.0459,-0.0425,-0.0392,-0.0465,-0.0726,-0.0727,-0.1129,-0.1134,-0.1137]}],[{"header":{"parameterUnit":"m.s-1","parameterCategory":2,"la1":30.2991,"la2":30.254,"lo1":-89.0895,"lo2":-89.0444,"dy":0.0017,"dx":0.0017,"nx":28,"ny":28,"refTime":"2025-03-24T09:00:00:Z","depth":"2","parameterNumber":2,"parameterNumberName":"U-component_of_CURRENTS"},"data":[0,0,0,0,0,0,0,0,0,0,0,0,0,0,0,0,0,0,0,0,0,0,0,0,0,0,0,0,0,0,0,0,0,0,0,0,0,0,0,0,0,0,0,0,0,0,0,0,0,0,0,0,0,0,0,0,0,0,0.269,0.2691,0,0.2761,0.2761,0.2762,0.2791,0.2792,0.2792,0.2792,0.2808,0.2809,0.2809,0,0,0,0,0,0,0,0,0,0,0,0,0,0.2633,0.2634,0.269,0.2691,0.2692,0.2761,0.2761,0.2762,0.2791,0.2792,0.2792,0.2792,0.2808,0.2809,0.2809,0,0,0,0,0,0,0,0,0,0,0,0,0,0.2674,0.2634,0.269,0.2717,0.272,0.2761,0.2762,0.2762,0.2791,0.2792,0.2792,0.2792,0.2808,0.2809,0.2809,0.281,0,0,0.2811,0.2811,0,0,0,0,0,0,0,0,0.2672,0.2676,0.2712,0.2715,0.2719,0.277,0.2748,0.2777,0.2791,0.2762,0.2792,0.2792,0.2792,0.2794,0.2804,0.2811,0.2811,0.2811,0.2811,0.2811,0.2812,0,0,0,0,0,0,0,0.2669,0.2673,0.2715,0.2713,0.2717,0.2744,0.2749,0.2754,0.2772,0.2764,0.2767,0.2779,0.2793,0.2803,0.2804,0.2812,0.2811,0.2811,0.2812,0.2812,0.2934,0.2937,0,0,0,0,0,0,0.2662,0.267,0.2713,0.2718,0.2698,0.2745,0.2751,0.2751,0.2773,0.2778,0.2779,0.278,0.2802,0.2804,0.2805,0.2879,0.2811,0.2812,0.2812,0.2931,0.2935,0.2938,0,0,0,0,0,0,0.266,0.2665,0.271,0.2698,0.2706,0.2746,0.2746,0.2753,0.2778,0.2786,0.2789,0.28,0.2803,0.2804,0.2836,0.2877,0.2812,0.2813,0.2928,0.2932,0.2936,0.2981,0,0,0,0,0,0,0.2658,0.2663,0.2673,0.2697,0.2707,0.2752,0.2747,0.2754,0.2786,0.2788,0.2804,0.2805,0.2803,0.2835,0.2836,0.2877,0.2813,0.2924,0.293,0.2935,0.2976,0.2986,0.2995,0,0,0,0,0,0.2656,0.267,0.2672,0.2679,0.2714,0.2754,0.2762,0.2788,0.2787,0.2809,0.2823,0.2806,0.2872,0.2837,0.2838,0.288,0.2921,0.2928,0.2934,0.2971,0.2984,0.2995,0,0,0,0,0,0,0.2655,0.2675,0.2678,0.2699,0.2731,0.276,0.2788,0.2797,0.2825,0.2833,0.2826,0.2829,0.2886,0.2877,0.2839,0.2938,0.2901,0.2908,0.2929,0.2941,0.2951,0.2978,0.2814,0,0,0,0,0,0.2657,0.267,0.2696,0.2716,0.2733,0.276,0.2782,0.2802,0.2827,0.284,0.2856,0.288,0.2913,0.2919,0.2954,0.2981,0.3014,0.3019,0.3028,0.3036,0.3064,0.3146,0.3165,0.2959,0.2959,0.2959,0,0,0.2663,0.2677,0.2686,0.2718,0.2743,0.2777,0.2774,0.2819,0.2852,0.2836,0.2892,0.2919,0.2935,0.2989,0.3012,0.298,0.3115,0.3044,0.3051,0.3075,0.3155,0.3175,0.3193,0.2964,0.2963,0.2962,0,0,0.2683,0.2694,0.2714,0.2747,0.2794,0.2808,0.2823,0.2868,0.2894,0.2944,0.2957,0.3007,0.3042,0.307,0.3081,0.3163,0.3176,0.3182,0.3231,0.331,0.3327,0.3343,0.3411,0.3433,0.3169,0.3169,0.3169,0,0.2692,0.2715,0.2731,0.2768,0.2798,0.282,0.2858,0.2889,0.2944,0.2991,0.2974,0.3089,0.3085,0.3159,0.3191,0.3183,0.3235,0.3173,0.3321,0.3337,0.3353,0.3419,0.3442,0.3172,0.3172,0.3172,0.3171,0,0.2726,0.2758,0.2779,0.282,0.2855,0.2897,0.2937,0.2984,0.3013,0.3068,0.3172,0.3181,0.3253,0.3259,0.3241,0.3356,0.3361,0.3333,0.3283,0.3376,0.344,0.3463,0.3176,0.3175,0.3174,0.3174,0,0,0.2715,0.2783,0.2795,0.2823,0.2889,0.2917,0.2981,0.3059,0.3113,0.3194,0.3282,0.3344,0.3386,0.3405,0.3399,0.345,0.3578,0.344,0.3442,0.3495,0.3771,0.3617,0.3627,0.3582,0.3586,0.359,0.3772,0,0.2739,0.2798,0.283,0.2896,0.2932,0.2982,0.3034,0.312,0.3182,0.3279,0.3354,0.3442,0.3428,0.3458,0.3521,0.3584,0.3644,0.3533,0.3687,0.3692,0.3532,0.365,0.3348,0.3471,0.3794,0.3798,0.3801,0,0.2763,0.28,0.2856,0.2933,0.2953,0.2994,0.3084,0.3143,0.3291,0.3346,0.3472,0.3545,0.3676,0.3614,0.3801,0.3742,0.3774,0.3799,0.3805,0.3666,0.3581,0.3434,0.3501,0.3839,0.3836,0.3833,0.383,0,0.2738,0.2822,0.2856,0.2887,0.2973,0.3014,0.3067,0.3189,0.327,0.3413,0.3516,0.3661,0.3769,0.3853,0.3937,0.3894,0.4117,0.4052,0.3947,0.3936,0.3711,0.3672,0.4172,0.4172,0.4172,0.4171,0.4171,0,0.2746,0.2788,0.2849,0.2875,0.2938,0.3009,0.3094,0.3163,0.331,0.3438,0.3569,0.3686,0.3844,0.3991,0.4012,0.4074,0.4194,0.3998,0.3986,0.3716,0.3677,0.4012,0.3991,0.4178,0.4177,0.4175,0.4174,0,0.2727,0.2766,0.2817,0.2896,0.2928,0.298,0.3118,0.3189,0.333,0.3498,0.3571,0.3797,0.3956,0.4076,0.4214,0.4177,0.4219,0.4191,0.3859,0.3802,0.3969,0.3949,0.4117,0.4114,0.4111,0.4108,0.4106,0,0.2713,0.2729,0.2813,0.2866,0.2908,0.2996,0.3059,0.3178,0.3249,0.3546,0.3618,0.3867,0.3971,0.4137,0.4089,0.4109,0.4181,0.3826,0.3656,0.3999,0.3971,0.3955,0.3939,0.3395,0.3387,0.3381,0.3376,0,0.2673,0.2701,0.2719,0.2867,0.2932,0.2974,0.3065,0.3141,0.3301,0.3451,0.3641,0.3772,0.3909,0.3785,0.3803,0.3759,0.3792,0.3691,0.4191,0.3423,0.3323,0.3293,0.3301,0.3319,0.3325,0.3329,0.3332,0.3334,0.2635,0.2647,0.2722,0.2825,0.2894,0.2945,0.2953,0.3048,0.3153,0.3304,0.3488,0.3538,0.3563,0.341,0.3306,0.3223,0.3465,0.3311,0.333,0.3356,0.3207,0.3103,0.3032,0.3036,0.3039,0.3042,0.3045,0,0.2619,0.2649,0.2722,0.2791,0.2807,0.2918,0.2936,0.2876,0.2929,0.3079,0.3158,0.2916,0.2849,0.2871,0.2654,0.2633,0.26,0.2523,0.2463,0.2523,0.2575,0.2384,0.1993,0.1989,0.1986,0.1982,0,0,0.2638,0.2657,0.266,0.2653,0.2746,0.2693,0.2691,0.2617,0.2607,0.2574,0.2567,0.2739,0.2828,0.2385,0.2312,0.2123,0.2306,0.2038,0.2893,0.2887,0.2935,0.3051,0.2827,0,0,0,0,0]},{"header":{"parameterUnit":"m.s-1","parameterCategory":2,"la1":30.2991,"la2":30.254,"lo1":-89.0895,"lo2":-89.0444,"dy":0.0017,"dx":0.0017,"nx":28,"ny":28,"refTime":"2025-03-24T09:00:00:Z","depth":"2","parameterNumber":3,"parameterNumberName":"V-component_of_CURRENTS"},"data":[0,0,0,0,0,0,0,0,0,0,0,0,0,0,0,0,0,0,0,0,0,0,0,0,0,0,0,0,0,0,0,0,0,0,0,0,0,0,0,0,0,0,0,0,0,0,0,0,0,0,0,0,0,0,0,0,0,0,0.009,0.0089,0,0.0049,0.0048,0.0048,0.0009,0.0009,0.0008,0.0008,-0.0022,-0.0023,-0.0023,0,0,0,0,0,0,0,0,0,0,0,0,0,0.009,0.0091,0.009,0.0089,0.0089,0.0049,0.0048,0.0047,0.0009,0.0009,0.0008,0.0008,-0.0022,-0.0023,-0.0023,0,0,0,0,0,0,0,0,0,0,0,0,0,0.0073,0.0091,0.009,0.0066,0.0063,0.0049,0.0048,0.0047,0.0009,0.0009,0.0008,0.0008,-0.0022,-0.0023,-0.0023,-0.0016,0,0,-0.0025,-0.0026,0,0,0,0,0,0,0,0,0.0074,0.0073,0.007,0.0068,0.0065,0.0034,0.0037,0.0027,0.001,0.0029,0.0008,0.0007,-0.0001,-0.0004,-0.0012,-0.0018,-0.0019,-0.0025,-0.0026,-0.0026,-0.0026,0,0,0,0,0,0,0,0.0075,0.0074,0.0072,0.0069,0.0066,0.0042,0.0039,0.0035,0.0017,0.0027,0.0024,0.0022,-0.0003,-0.0011,-0.0013,-0.002,-0.0025,-0.0026,-0.0026,-0.0027,-0.0023,-0.0023,0,0,0,0,0,0,0.0086,0.0076,0.0074,0.0071,0.0069,0.0043,0.0039,0.0044,0.0016,0.0012,0.0022,0.002,-0.001,-0.0012,-0.0014,0.0008,-0.0026,-0.0027,-0.0027,-0.0024,-0.0023,-0.0022,0,0,0,0,0,0,0.0086,0.0086,0.0075,0.0073,0.007,0.0044,0.0049,0.0043,0.0037,0.0013,0.0008,0.0022,-0.001,-0.0013,-0.001,0.0006,-0.0027,-0.0028,-0.0024,-0.0023,-0.0023,0.0042,0,0,0,0,0,0,0.0086,0.0087,0.0093,0.0074,0.007,0.0077,0.0049,0.0043,0.0036,0.0033,0.0011,0.0007,-0.0011,-0.0009,-0.0011,0.0004,-0.0028,-0.0025,-0.0024,-0.0023,0.0039,0.0045,0.0049,0,0,0,0,0,0.0087,0.0101,0.0094,0.0093,0.008,0.0078,0.0074,0.0052,0.0037,0.0042,0.0026,0.0008,-0.0005,-0.0008,-0.0011,0.0004,-0.0025,-0.0024,-0.0023,0.0037,0.0044,0.0049,0,0,0,0,0,0,0.0099,0.0098,0.009,0.0101,0.0094,0.0072,0.0074,0.0058,0.0048,0.0044,0.0019,0.0015,0.0022,0.0004,0.0,0.0006,-0.002,-0.0019,0.0026,0.0033,0.0038,0.0058,-0.0029,0,0,0,0,0,0.0107,0.0121,0.011,0.0119,0.0119,0.0097,0.0092,0.0078,0.0067,0.0061,0.0044,0.0029,0.0024,0.0022,0.0012,0.0021,0.0005,0.0026,0.0032,0.0036,0.005,0.0038,0.0044,-0.0019,-0.0019,-0.0019,0,0,0.0112,0.0115,0.012,0.0123,0.0115,0.0129,0.0093,0.0092,0.0105,0.0061,0.0072,0.0048,0.003,0.0038,0.0039,0.0026,0.0044,0.0038,0.0042,0.0054,0.004,0.0047,0.0052,-0.0018,-0.0018,-0.0018,0,0,0.0137,0.0135,0.0157,0.0163,0.016,0.015,0.0154,0.0137,0.0131,0.0139,0.0109,0.0095,0.009,0.0075,0.007,0.0099,0.0072,0.0093,0.014,0.0128,0.0133,0.0138,0.0123,0.0126,0.0097,0.0097,0.0097,0,0.0142,0.0174,0.0161,0.0189,0.0203,0.0167,0.0197,0.0188,0.0173,0.0178,0.0154,0.0137,0.0111,0.0124,0.0128,0.0112,0.0102,0.0119,0.0136,0.014,0.0144,0.0127,0.0129,0.01,0.01,0.01,0.0099,0,0.0188,0.0216,0.0232,0.0261,0.027,0.0289,0.0282,0.0285,0.027,0.0258,0.0261,0.0218,0.0208,0.0192,0.0172,0.0184,0.0168,0.0144,0.0124,0.0154,0.0134,0.0135,0.0105,0.0104,0.0103,0.0102,0,0,0.0199,0.0255,0.0261,0.0299,0.0314,0.0332,0.0356,0.0373,0.0397,0.0362,0.0394,0.0353,0.0315,0.0305,0.0263,0.0247,0.0251,0.0214,0.0212,0.0206,0.023,0.017,0.0165,0.0234,0.0235,0.0236,0.0205,0,0.0242,0.0319,0.033,0.0402,0.0444,0.0437,0.0472,0.0479,0.047,0.0487,0.0435,0.0445,0.0363,0.0363,0.0329,0.0287,0.0258,0.0261,0.0196,0.0194,0.0142,0.0166,0.0187,0.0158,0.0206,0.0206,0.0206,0,0.0287,0.0339,0.0419,0.0499,0.0515,0.0549,0.0602,0.0629,0.0634,0.063,0.0606,0.0566,0.0541,0.0466,0.0387,0.0398,0.0317,0.0267,0.0264,0.0189,0.0136,0.0135,0.0158,0.0207,0.0207,0.0207,0.0207,0,0.0319,0.0405,0.0476,0.0504,0.0576,0.0614,0.0651,0.0671,0.0723,0.0724,0.077,0.0691,0.0702,0.0585,0.0455,0.0435,0.0369,0.0324,0.0186,0.0181,0.0176,0.0169,0.0256,0.0256,0.0256,0.0256,0.0256,0,0.037,0.043,0.0502,0.0546,0.0644,0.0673,0.0765,0.0783,0.084,0.0938,0.085,0.0908,0.0739,0.0673,0.0512,0.0359,0.0404,0.0204,0.0173,0.0197,0.0193,0.0216,0.0211,0.0255,0.0255,0.0255,0.0256,0,0.0397,0.0441,0.0534,0.0625,0.0663,0.0735,0.0865,0.0952,0.098,0.111,0.1133,0.1102,0.1009,0.0808,0.0636,0.0465,0.0301,0.0223,0.0257,0.0228,0.0105,0.0104,0.0081,0.0079,0.0077,0.0075,0.0074,0,0.0421,0.0469,0.0588,0.066,0.0708,0.0823,0.0935,0.1013,0.1123,0.1243,0.1336,0.1278,0.1255,0.0953,0.0628,0.0323,0.0285,0.0145,0.0089,0.0117,0.0089,0.0091,0.0093,0.0113,0.0112,0.0112,0.0111,0,0.0468,0.0501,0.0582,0.0733,0.0862,0.1025,0.1183,0.1283,0.1417,0.1525,0.1654,0.1639,0.1339,0.1026,0.0581,0.0374,0.0188,0.0118,0.0167,0.0141,0.0141,0.0115,0.0118,0.0104,0.0105,0.0105,0.0106,0.0106,0.0504,0.0572,0.0688,0.0839,0.0995,0.1225,0.138,0.1547,0.1744,0.1899,0.1857,0.182,0.1453,0.0863,0.0504,0.0122,0.0134,0.0004,0.001,0.0016,0.0012,0.0007,-0.0055,-0.0056,-0.0056,-0.0056,-0.0056,0,0.0583,0.067,0.0798,0.1015,0.1213,0.1283,0.1564,0.1719,0.1955,0.2015,0.2065,0.1692,0.133,0.091,0.0337,-0.0001,-0.001,-0.0103,-0.0035,-0.0026,-0.0019,-0.0023,-0.01,-0.0101,-0.0102,-0.0103,0,0,0.0637,0.0788,0.0869,0.1194,0.1332,0.1626,0.1792,0.1981,0.2071,0.2117,0.2046,0.1912,0.1419,0.0994,0.0536,0.0222,0.0179,0.0159,0.0229,0.0372,0.0383,0.0073,0.0079,0,0,0,0,0]}],[{"header":{"parameterUnit":"m.s-1","parameterCategory":2,"la1":30.2991,"la2":30.254,"lo1":-89.0895,"lo2":-89.0444,"dy":0.0017,"dx":0.0017,"nx":28,"ny":28,"refTime":"2025-03-24T09:00:00:Z","depth":"4","parameterNumber":2,"parameterNumberName":"U-component_of_CURRENTS"},"data":[0,0,0,0,0,0,0,0,0,0,0,0,0,0,0,0,0,0,0,0,0,0,0,0,0,0,0,0,0,0,0,0,0,0,0,0,0,0,0,0,0,0,0,0,0,0,0,0,0,0,0,0,0,0,0,0,0,0,0.1547,0.1548,0,0.1575,0.1575,0.1576,0.1627,0.1628,0.1629,0.163,0.1688,0.1688,0.1689,0,0,0,0,0,0,0,0,0,0,0,0,0,0.1533,0.1533,0.1547,0.1548,0.1548,0.1575,0.1575,0.1576,0.1627,0.1628,0.1629,0.163,0.1688,0.1688,0.1689,0,0,0,0,0,0,0,0,0,0,0,0,0,0.1549,0.1533,0.1547,0.1576,0.1578,0.1575,0.1575,0.1576,0.1627,0.1628,0.1629,0.1631,0.1687,0.1688,0.1689,0.167,0,0,0.1693,0.1693,0,0,0,0,0,0,0,0,0.1548,0.155,0.1571,0.1574,0.1577,0.1598,0.1592,0.1608,0.1626,0.161,0.163,0.1631,0.1659,0.1662,0.1666,0.1672,0.1675,0.1693,0.1693,0.1694,0.1694,0,0,0,0,0,0,0,0.1547,0.1549,0.156,0.1571,0.1575,0.1585,0.1589,0.1595,0.1628,0.1611,0.1615,0.1615,0.1661,0.1665,0.1668,0.1676,0.1693,0.1694,0.1694,0.1695,0.1811,0.1813,0,0,0,0,0,0,0.154,0.1548,0.1559,0.156,0.1564,0.1584,0.1589,0.1591,0.1627,0.1634,0.1614,0.1618,0.1662,0.1666,0.167,0.176,0.1694,0.1695,0.1696,0.1808,0.1811,0.1814,0,0,0,0,0,0,0.1539,0.1541,0.1558,0.1554,0.1556,0.1583,0.1585,0.1591,0.1631,0.1629,0.1637,0.1653,0.1663,0.1668,0.1716,0.1759,0.1695,0.1696,0.1806,0.1809,0.1813,0.1869,0,0,0,0,0,0,0.1539,0.154,0.1559,0.1553,0.1556,0.1573,0.1584,0.159,0.1626,0.1632,0.1664,0.1669,0.1665,0.1714,0.1717,0.1759,0.1697,0.1802,0.1807,0.1812,0.1864,0.1874,0.1883,0,0,0,0,0,0.1538,0.1545,0.156,0.1562,0.1575,0.1573,0.1577,0.16,0.1627,0.1643,0.1679,0.167,0.1746,0.1717,0.1719,0.1763,0.18,0.1806,0.1811,0.186,0.1872,0.1883,0,0,0,0,0,0,0.1547,0.1551,0.1567,0.1576,0.1586,0.1582,0.1605,0.162,0.166,0.1683,0.1689,0.1696,0.1762,0.1754,0.1722,0.1814,0.1776,0.1782,0.1812,0.1824,0.1833,0.1834,0.1698,0,0,0,0,0,0.1557,0.1571,0.157,0.1585,0.1594,0.161,0.1622,0.1636,0.1658,0.1679,0.1697,0.1733,0.1779,0.1795,0.1824,0.1857,0.187,0.1893,0.1902,0.191,0.1916,0.1975,0.199,0.1832,0.1832,0.1832,0,0,0.1565,0.157,0.158,0.159,0.1607,0.1621,0.1623,0.1649,0.1672,0.1678,0.1731,0.1769,0.18,0.1853,0.188,0.1853,0.1966,0.1917,0.1923,0.1925,0.1982,0.1998,0.2011,0.1836,0.1835,0.1834,0,0,0.1568,0.1597,0.1604,0.1618,0.1641,0.1652,0.1668,0.1682,0.1709,0.1754,0.1784,0.1841,0.1887,0.1916,0.194,0.2014,0.2022,0.204,0.2074,0.2133,0.2146,0.2157,0.2203,0.2218,0.2033,0.2033,0.2033,0,0.1581,0.1589,0.1607,0.1617,0.1638,0.1672,0.1688,0.1715,0.1744,0.1772,0.1784,0.1898,0.1916,0.1996,0.2032,0.2033,0.2072,0.2025,0.2143,0.2155,0.2166,0.221,0.2225,0.2037,0.2036,0.2036,0.2036,0,0.158,0.1601,0.1611,0.1642,0.1667,0.169,0.1722,0.1762,0.1809,0.1831,0.1926,0.1965,0.2033,0.2057,0.207,0.2167,0.2172,0.2155,0.2109,0.2185,0.2227,0.2242,0.2041,0.204,0.2039,0.2038,0,0,0.1562,0.1601,0.161,0.1627,0.1687,0.1697,0.1762,0.1811,0.1863,0.1918,0.1985,0.2074,0.2113,0.2144,0.2175,0.2221,0.2331,0.2231,0.2232,0.2265,0.2474,0.2296,0.2295,0.2348,0.2351,0.2353,0.2474,0,0.1559,0.1578,0.1607,0.1645,0.1661,0.1725,0.1776,0.1836,0.1902,0.1973,0.2044,0.2127,0.2142,0.2199,0.2254,0.2325,0.2375,0.23,0.2404,0.2407,0.223,0.2308,0.2363,0.2486,0.2489,0.2492,0.2494,0,0.1542,0.156,0.1591,0.1644,0.1661,0.1702,0.1807,0.1856,0.1968,0.2024,0.2127,0.2188,0.2301,0.2289,0.2445,0.2409,0.2453,0.2486,0.2491,0.2312,0.2257,0.2394,0.2521,0.2519,0.2517,0.2515,0.2514,0,0.1495,0.1545,0.1573,0.1594,0.1665,0.171,0.1771,0.188,0.1936,0.2075,0.2145,0.2272,0.2369,0.2449,0.2538,0.2516,0.2684,0.2649,0.2525,0.2514,0.2611,0.2597,0.2742,0.2742,0.2742,0.2741,0.2741,0,0.1454,0.1474,0.1561,0.1564,0.1607,0.1694,0.1772,0.1838,0.1977,0.2054,0.2181,0.2269,0.2423,0.2531,0.2578,0.2605,0.2724,0.2546,0.2535,0.2634,0.2621,0.2622,0.2607,0.2746,0.2745,0.2744,0.2743,0,0.1364,0.1431,0.144,0.1531,0.1571,0.16,0.1741,0.179,0.1955,0.207,0.2126,0.2315,0.2458,0.2568,0.2709,0.2646,0.2684,0.2657,0.2772,0.2764,0.2465,0.2452,0.2527,0.2521,0.2517,0.2513,0.251,0,0.1298,0.131,0.1384,0.1388,0.1425,0.1514,0.1565,0.1742,0.1816,0.2078,0.2114,0.232,0.2428,0.2503,0.2609,0.2669,0.2636,0.2626,0.2523,0.2462,0.2446,0.2439,0.2432,0.2503,0.2502,0.2501,0.25,0,0.1155,0.1205,0.1211,0.1242,0.1284,0.1333,0.1448,0.1502,0.1733,0.1909,0.2079,0.2174,0.2323,0.2423,0.2485,0.2516,0.2612,0.2579,0.2587,0.249,0.2435,0.2421,0.2419,0.2484,0.2486,0.2488,0.2489,0,0.1036,0.1,0.1037,0.1063,0.1111,0.1139,0.1225,0.1368,0.1494,0.1825,0.1883,0.2114,0.232,0.2345,0.2402,0.2416,0.2372,0.2279,0.2302,0.232,0.2189,0.2084,0.2029,0,0,0,0,0,0.0905,0.0862,0.0855,0.0871,0.0934,0.0987,0.1134,0.1253,0.1521,0.1592,0.1752,0.1892,0.2022,0.2132,0.2105,0.2251,0.2333,0.22,0.2225,0.2399,0.2417,0.2276,0,0,0,0,0,0,0.0803,0.0773,0.079,0.0748,0.0751,0.0812,0.0907,0.1083,0.1168,0.145,0.1543,0.1755,0.1906,0.2029,0.2066,0.2093,0.2061,0.2349,0.2343,0.2389,0.2405,0.2419,0.2281,0,0,0,0,0]},{"header":{"parameterUnit":"m.s-1","parameterCategory":2,"la1":30.2991,"la2":30.254,"lo1":-89.0895,"lo2":-89.0444,"dy":0.0017,"dx":0.0017,"nx":28,"ny":28,"refTime":"2025-03-24T09:00:00:Z","depth":"4","parameterNumber":3,"parameterNumberName":"V-component_of_CURRENTS"},"data":[0,0,0,0,0,0,0,0,0,0,0,0,0,0,0,0,0,0,0,0,0,0,0,0,0,0,0,0,0,0,0,0,0,0,0,0,0,0,0,0,0,0,0,0,0,0,0,0,0,0,0,0,0,0,0,0,0,0,0.012,0.012,0,0.0108,0.0108,0.0108,0.009,0.009,0.009,0.009,0.0074,0.0073,0.0073,0,0,0,0,0,0,0,0,0,0,0,0,0,0.0105,0.0106,0.012,0.012,0.012,0.0109,0.0108,0.0108,0.009,0.009,0.009,0.0089,0.0074,0.0073,0.0073,0,0,0,0,0,0,0,0,0,0,0,0,0,0.0104,0.0106,0.012,0.0111,0.011,0.0109,0.0108,0.0108,0.009,0.009,0.009,0.0089,0.0074,0.0073,0.0073,0.0078,0,0,0.0072,0.0072,0,0,0,0,0,0,0,0,0.0104,0.0104,0.0112,0.0111,0.011,0.0101,0.0097,0.0098,0.009,0.0097,0.009,0.0089,0.0083,0.0082,0.008,0.0078,0.0077,0.0072,0.0072,0.0072,0.0072,0,0,0,0,0,0,0,0.0104,0.0104,0.0115,0.0112,0.0111,0.0099,0.0099,0.0097,0.0091,0.0096,0.0095,0.0095,0.0083,0.008,0.0079,0.0077,0.0072,0.0072,0.0072,0.0072,0.007,0.0071,0,0,0,0,0,0,0.0109,0.0105,0.0115,0.0115,0.0107,0.01,0.0099,0.0104,0.0092,0.009,0.0096,0.0094,0.0081,0.0079,0.0078,0.0086,0.0072,0.0072,0.0071,0.007,0.007,0.0071,0,0,0,0,0,0,0.0109,0.011,0.0116,0.011,0.011,0.0101,0.0106,0.0104,0.0104,0.0091,0.0089,0.0098,0.008,0.0079,0.0081,0.0086,0.0071,0.0071,0.007,0.007,0.0071,0.0101,0,0,0,0,0,0,0.0108,0.011,0.0116,0.011,0.011,0.0123,0.0106,0.0104,0.0104,0.0103,0.0093,0.009,0.008,0.0082,0.0081,0.0085,0.0071,0.007,0.007,0.007,0.01,0.0102,0.0104,0,0,0,0,0,0.0108,0.012,0.0116,0.0117,0.0118,0.0124,0.0123,0.0114,0.0105,0.0111,0.0101,0.0091,0.0082,0.0082,0.0081,0.0085,0.007,0.007,0.007,0.0099,0.0102,0.0104,0,0,0,0,0,0,0.0114,0.012,0.0115,0.0127,0.0128,0.0121,0.0126,0.0119,0.0116,0.0113,0.0098,0.0095,0.0096,0.0088,0.0088,0.0084,0.0073,0.0073,0.0094,0.0097,0.0099,0.011,0.0071,0,0,0,0,0,0.0119,0.0131,0.013,0.014,0.0142,0.0134,0.0135,0.013,0.0126,0.0123,0.0117,0.0106,0.0097,0.0096,0.0088,0.0092,0.007,0.0092,0.0094,0.0096,0.0104,0.0072,0.0072,0.0072,0.0072,0.0072,0,0,0.0122,0.0128,0.0133,0.0143,0.0141,0.0153,0.0134,0.014,0.0148,0.0123,0.0133,0.0116,0.0099,0.01,0.0099,0.0094,0.0082,0.0097,0.0099,0.0105,0.0072,0.0072,0.0072,0.0072,0.0072,0.0072,0,0,0.014,0.0142,0.0159,0.0166,0.0172,0.0168,0.0172,0.017,0.0167,0.0175,0.0152,0.0139,0.0137,0.012,0.0111,0.0122,0.0095,0.0119,0.0142,0.0111,0.0111,0.011,0.0074,0.007,0.0121,0.0122,0.0122,0,0.0143,0.0168,0.0164,0.0185,0.0197,0.0178,0.02,0.0195,0.0193,0.0195,0.0185,0.0164,0.0146,0.0136,0.0136,0.0127,0.0105,0.0134,0.0114,0.0113,0.0112,0.0075,0.007,0.0123,0.0123,0.0123,0.0123,0,0.0174,0.0197,0.0209,0.0231,0.024,0.0257,0.0252,0.0259,0.0252,0.0242,0.0235,0.0204,0.0193,0.0178,0.0161,0.0145,0.0129,0.0119,0.0108,0.0114,0.0074,0.0068,0.0125,0.0125,0.0124,0.0124,0,0,0.0178,0.0224,0.0229,0.026,0.027,0.0288,0.0299,0.0309,0.0325,0.03,0.0311,0.0272,0.0247,0.0235,0.0203,0.0171,0.0134,0.0147,0.0144,0.0112,0.0062,0.0044,0.0035,0.0121,0.0121,0.012,0.0034,0,0.0206,0.0267,0.0275,0.0329,0.0362,0.0359,0.0381,0.0383,0.0374,0.0378,0.0324,0.0321,0.027,0.0268,0.0224,0.0162,0.0123,0.0159,0.006,0.0057,0.0041,0.003,0.0119,0.003,0.0028,0.0027,0.0027,0,0.0235,0.0279,0.0342,0.0406,0.0419,0.0446,0.0485,0.0503,0.0489,0.0478,0.0443,0.0402,0.0346,0.0308,0.0192,0.0218,0.0145,0.0089,0.0084,0.0056,0.0029,0.0023,0.0016,0.0017,0.0018,0.0019,0.0019,0,0.0258,0.0326,0.0385,0.0406,0.0466,0.0498,0.053,0.0537,0.0571,0.0541,0.055,0.0465,0.0438,0.0331,0.0199,0.0201,0.0068,0.0055,-0.0034,-0.0037,-0.0007,-0.0006,-0.0024,-0.0024,-0.0024,-0.0024,-0.0023,0,0.0294,0.0343,0.0409,0.0447,0.0536,0.0552,0.0633,0.0641,0.0661,0.0698,0.0609,0.0602,0.0445,0.0347,0.0219,0.007,0.0077,-0.0033,-0.0059,0.0006,0.001,-0.0012,-0.0009,-0.0027,-0.0026,-0.0026,-0.0025,0,0.0318,0.0355,0.0437,0.0517,0.0555,0.0621,0.0727,0.0783,0.0776,0.0819,0.0814,0.0711,0.0572,0.0401,0.022,0.0109,-0.0038,-0.0093,-0.0017,-0.0037,-0.0127,-0.0122,-0.0194,-0.0196,-0.0197,-0.0198,-0.0199,0,0.0341,0.0383,0.0497,0.0565,0.0612,0.0718,0.0802,0.0844,0.0896,0.0883,0.0902,0.078,0.0686,0.0417,0.0222,-0.0035,-0.007,-0.0148,-0.0137,-0.0125,-0.0144,-0.0137,-0.0131,-0.02,-0.0201,-0.0201,-0.0201,0,0.0385,0.0419,0.0491,0.0632,0.0736,0.0859,0.0966,0.1007,0.1043,0.1038,0.0981,0.0825,0.066,0.0426,0.022,0.0038,-0.01,-0.0161,-0.0159,-0.0149,-0.0134,-0.015,-0.0142,-0.0205,-0.0205,-0.0204,-0.0204,0,0.0421,0.0476,0.0571,0.0699,0.0829,0.0949,0.101,0.1071,0.112,0.1086,0.1063,0.0866,0.0754,0.0463,0.0273,0.0085,0.0041,-0.0011,-0.0019,-0.0017,0.0052,0.0099,0.0076,0,0,0,0,0,0.0457,0.0521,0.0636,0.0779,0.0906,0.0982,0.1098,0.114,0.1163,0.1141,0.1104,0.0945,0.0647,0.0512,0.0324,0.024,-0.0001,0.0012,-0.0066,-0.0227,-0.0222,-0.0175,0,0,0,0,0,0,0.0481,0.0581,0.0636,0.0815,0.0915,0.1068,0.1135,0.116,0.1146,0.1125,0.0974,0.0895,0.0609,0.0755,0.0318,0.0258,0.0182,-0.0127,-0.0131,-0.023,-0.0225,-0.0222,-0.0171,0,0,0,0,0]}]]